owner,sensor,date,latitude,longitude,vertical_datum,mass_concentration_of_oxygen_in_sea_water,qcFlag 
DISL,ioos:station:DISL:DISL:1,2013-02-01T00:00:00Z,30.2513,-88.0778,1.8114264,10.83,1111122 
DISL,ioos:station:DISL:DISL:1,2013-02-01T00:30:00Z,30.2513,-88.0778,1.807769,10.7,1111122 
DISL,ioos:station:DISL:DISL:1,2013-02-01T01:00:00Z,30.2513,-88.0778,1.8123409,10.72,1111122 
DISL,ioos:station:DISL:DISL:1,2013-02-01T01:30:00Z,30.2513,-88.0778,1.8080736,10.67,1111122 
DISL,ioos:station:DISL:DISL:1,2013-02-01T02:00:00Z,30.2513,-88.0778,1.8208752,10.55,1111122 
DISL,ioos:station:DISL:DISL:1,2013-02-01T02:30:00Z,30.2513,-88.0778,1.827276,10.53,1111122 
DISL,ioos:station:DISL:DISL:1,2013-02-01T03:00:00Z,30.2513,-88.0778,1.8190464,10.57,1111122 
DISL,ioos:station:DISL:DISL:1,2013-02-01T03:30:00Z,30.2513,-88.0778,1.8126457,10.41,1111122 
DISL,ioos:station:DISL:DISL:1,2013-02-01T04:00:00Z,30.2513,-88.0778,1.819656,10.34,1111122 
DISL,ioos:station:DISL:DISL:1,2013-02-01T04:30:00Z,30.2513,-88.0778,1.8263617,10.33,1111122 
DISL,ioos:station:DISL:DISL:1,2013-02-01T05:00:00Z,30.2513,-88.0778,1.81356,10.36,1111122 
DISL,ioos:station:DISL:DISL:1,2013-02-01T05:30:00Z,30.2513,-88.0778,1.8105121,10.21,1111122 
DISL,ioos:station:DISL:DISL:1,2013-02-01T06:00:00Z,30.2513,-88.0778,1.7992344,10.22,1111122 
DISL,ioos:station:DISL:DISL:1,2013-02-01T06:30:00Z,30.2513,-88.0778,1.7931384,10.09,1111122 
DISL,ioos:station:DISL:DISL:1,2013-02-01T07:00:00Z,30.2513,-88.0778,1.7772888,10.16,1111122 
DISL,ioos:station:DISL:DISL:1,2013-02-01T07:30:00Z,30.2513,-88.0778,1.786128,10.2,1111122 
DISL,ioos:station:DISL:DISL:1,2013-02-01T08:00:00Z,30.2513,-88.0778,1.7821656,10.16,1111122 
DISL,ioos:station:DISL:DISL:1,2013-02-01T08:30:00Z,30.2513,-88.0778,1.7711928,10.17,1111122 
DISL,ioos:station:DISL:DISL:1,2013-02-01T09:00:00Z,30.2513,-88.0778,1.76022,10.16,1111122 
DISL,ioos:station:DISL:DISL:1,2013-02-01T09:30:00Z,30.2513,-88.0778,1.7620488,10.11,1111122 
DISL,ioos:station:DISL:DISL:1,2013-02-01T10:00:00Z,30.2513,-88.0778,1.7465041,10.1,1111122 
DISL,ioos:station:DISL:DISL:1,2013-02-01T10:30:00Z,30.2513,-88.0778,1.7425417,10.07,1111122 
DISL,ioos:station:DISL:DISL:1,2013-02-01T11:00:00Z,30.2513,-88.0778,1.7385793,9.96,1111122 
DISL,ioos:station:DISL:DISL:1,2013-02-01T11:30:00Z,30.2513,-88.0778,1.703832,10.01,1111122 
DISL,ioos:station:DISL:DISL:1,2013-02-01T12:00:00Z,30.2513,-88.0778,1.7324833,9.94,1111122 
DISL,ioos:station:DISL:DISL:1,2013-02-01T12:30:00Z,30.2513,-88.0778,1.7157192,9.93,1111122 
DISL,ioos:station:DISL:DISL:1,2013-02-01T13:00:00Z,30.2513,-88.0778,1.7333976,9.93,1111122 
DISL,ioos:station:DISL:DISL:1,2013-02-01T13:30:00Z,30.2513,-88.0778,1.7199864,9.9,1111122 
DISL,ioos:station:DISL:DISL:1,2013-02-01T14:00:00Z,30.2513,-88.0778,1.7105377,9.92,1111122 
DISL,ioos:station:DISL:DISL:1,2013-02-01T14:30:00Z,30.2513,-88.0778,1.69926,9.95,1111122 
DISL,ioos:station:DISL:DISL:1,2013-02-01T15:00:00Z,30.2513,-88.0778,1.7209008,9.96,1111122 
DISL,ioos:station:DISL:DISL:1,2013-02-01T15:30:00Z,30.2513,-88.0778,1.7431512,10.03,1111122 
DISL,ioos:station:DISL:DISL:1,2013-02-01T16:00:00Z,30.2513,-88.0778,1.735836,10.1,1111122 
DISL,ioos:station:DISL:DISL:1,2013-02-01T16:30:00Z,30.2513,-88.0778,1.7687544,10.44,1111122 
DISL,ioos:station:DISL:DISL:1,2013-02-01T17:00:00Z,30.2513,-88.0778,1.769364,10.36,1111122 
DISL,ioos:station:DISL:DISL:1,2013-02-01T17:30:00Z,30.2513,-88.0778,1.7157192,10.43,1111122 
DISL,ioos:station:DISL:DISL:1,2013-02-01T18:00:00Z,30.2513,-88.0778,1.7903953,10.4,1111122 
DISL,ioos:station:DISL:DISL:1,2013-02-01T18:30:00Z,30.2513,-88.0778,1.7971008,10.39,1111122 
DISL,ioos:station:DISL:DISL:1,2013-02-01T19:00:00Z,30.2513,-88.0778,1.7812512,10.42,1111122 
DISL,ioos:station:DISL:DISL:1,2013-02-01T19:30:00Z,30.2513,-88.0778,1.8260568,10.39,1111122 
DISL,ioos:station:DISL:DISL:1,2013-02-01T20:00:00Z,30.2513,-88.0778,1.7986249,10.55,1111122 
DISL,ioos:station:DISL:DISL:1,2013-02-01T20:30:00Z,30.2513,-88.0778,1.8184369,10.54,1111122 
DISL,ioos:station:DISL:DISL:1,2013-02-01T21:00:00Z,30.2513,-88.0778,1.8416016,10.6,1111122 
DISL,ioos:station:DISL:DISL:1,2013-02-01T21:30:00Z,30.2513,-88.0778,1.8190464,10.71,1111122 
DISL,ioos:station:DISL:DISL:1,2013-02-01T22:00:00Z,30.2513,-88.0778,1.8159984,10.85,1111122 
DISL,ioos:station:DISL:DISL:1,2013-02-01T22:30:00Z,30.2513,-88.0778,1.8202657,11.0,1111122 
DISL,ioos:station:DISL:DISL:1,2013-02-01T23:00:00Z,30.2513,-88.0778,1.8260568,11.06,1111122 
DISL,ioos:station:DISL:DISL:1,2013-02-01T23:30:00Z,30.2513,-88.0778,1.8132552,11.03,1111122 
DISL,ioos:station:DISL:DISL:1,2013-02-02T00:00:00Z,30.2513,-88.0778,1.801368,11.12,1111122 
DISL,ioos:station:DISL:DISL:1,2013-02-02T00:30:00Z,30.2513,-88.0778,1.7977103,11.1,1111122 
DISL,ioos:station:DISL:DISL:1,2013-02-02T01:00:00Z,30.2513,-88.0778,1.807769,10.91,1111122 
DISL,ioos:station:DISL:DISL:1,2013-02-02T01:30:00Z,30.2513,-88.0778,1.7916144,10.51,1111122 
DISL,ioos:station:DISL:DISL:1,2013-02-02T02:00:00Z,30.2513,-88.0778,1.8336768,10.37,1111122 
DISL,ioos:station:DISL:DISL:1,2013-02-02T02:30:00Z,30.2513,-88.0778,1.8004537,10.29,1111122 
DISL,ioos:station:DISL:DISL:1,2013-02-02T03:00:00Z,30.2513,-88.0778,1.808988,10.27,1111122 
DISL,ioos:station:DISL:DISL:1,2013-02-02T03:30:00Z,30.2513,-88.0778,1.7949672,10.26,1111122 
DISL,ioos:station:DISL:DISL:1,2013-02-02T04:00:00Z,30.2513,-88.0778,1.7846041,10.24,1111122 
DISL,ioos:station:DISL:DISL:1,2013-02-02T04:30:00Z,30.2513,-88.0778,1.7809464,10.25,1111122 
DISL,ioos:station:DISL:DISL:1,2013-02-02T05:00:00Z,30.2513,-88.0778,1.7791176,10.27,1111122 
DISL,ioos:station:DISL:DISL:1,2013-02-02T05:30:00Z,30.2513,-88.0778,1.766316,10.26,1111122 
DISL,ioos:station:DISL:DISL:1,2013-02-02T06:00:00Z,30.2513,-88.0778,1.7437608,10.22,1111122 
DISL,ioos:station:DISL:DISL:1,2013-02-02T06:30:00Z,30.2513,-88.0778,1.7532096,10.22,1111122 
DISL,ioos:station:DISL:DISL:1,2013-02-02T07:00:00Z,30.2513,-88.0778,1.7471136,10.22,1111122 
DISL,ioos:station:DISL:DISL:1,2013-02-02T07:30:00Z,30.2513,-88.0778,1.7519904,10.22,1111122 
DISL,ioos:station:DISL:DISL:1,2013-02-02T08:00:00Z,30.2513,-88.0778,1.7562577,10.2,1111122 
DISL,ioos:station:DISL:DISL:1,2013-02-02T08:30:00Z,30.2513,-88.0778,1.7529048,10.21,1111122 
DISL,ioos:station:DISL:DISL:1,2013-02-02T09:00:00Z,30.2513,-88.0778,1.7529048,10.22,1111122 
DISL,ioos:station:DISL:DISL:1,2013-02-02T09:30:00Z,30.2513,-88.0778,1.7416273,10.2,1111122 
DISL,ioos:station:DISL:DISL:1,2013-02-02T10:00:00Z,30.2513,-88.0778,1.7471136,10.18,1111122 
DISL,ioos:station:DISL:DISL:1,2013-02-02T10:30:00Z,30.2513,-88.0778,1.7446752,10.18,1111122 
DISL,ioos:station:DISL:DISL:1,2013-02-02T11:00:00Z,30.2513,-88.0778,1.7440656,10.19,1111122 
DISL,ioos:station:DISL:DISL:1,2013-02-02T11:30:00Z,30.2513,-88.0778,1.8193512,10.22,1111122 
DISL,ioos:station:DISL:DISL:1,2013-02-02T12:00:00Z,30.2513,-88.0778,1.7574768,10.17,1111122 
DISL,ioos:station:DISL:DISL:1,2013-02-02T12:30:00Z,30.2513,-88.0778,1.7718024,10.14,1111122 
DISL,ioos:station:DISL:DISL:1,2013-02-02T13:00:00Z,30.2513,-88.0778,1.7855184,10.15,1111122 
DISL,ioos:station:DISL:DISL:1,2013-02-02T13:30:00Z,30.2513,-88.0778,1.7903953,10.16,1111122 
DISL,ioos:station:DISL:DISL:1,2013-02-02T14:00:00Z,30.2513,-88.0778,1.7888712,10.17,1111122 
DISL,ioos:station:DISL:DISL:1,2013-02-02T14:30:00Z,30.2513,-88.0778,1.8080736,10.1,1111122 
DISL,ioos:station:DISL:DISL:1,2013-02-02T15:00:00Z,30.2513,-88.0778,1.8166081,9.65,1111122 
DISL,ioos:station:DISL:DISL:1,2013-02-02T15:30:00Z,30.2513,-88.0778,1.8208752,9.38,1111122 
DISL,ioos:station:DISL:DISL:1,2013-02-02T16:00:00Z,30.2513,-88.0778,1.8443449,8.76,1111122 
DISL,ioos:station:DISL:DISL:1,2013-02-02T16:30:00Z,30.2513,-88.0778,1.8544033,7.67,1111122 
DISL,ioos:station:DISL:DISL:1,2013-02-02T17:00:00Z,30.2513,-88.0778,1.8681192,6.83,1111122 
DISL,ioos:station:DISL:DISL:1,2013-02-02T17:30:00Z,30.2513,-88.0778,1.894332,6.96,1111122 
DISL,ioos:station:DISL:DISL:1,2013-02-02T18:00:00Z,30.2513,-88.0778,1.9098767,7.01,1111122 
DISL,ioos:station:DISL:DISL:1,2013-02-02T18:30:00Z,30.2513,-88.0778,1.9327369,7.07,1111122 
DISL,ioos:station:DISL:DISL:1,2013-02-02T19:00:00Z,30.2513,-88.0778,1.9601688,7.34,1111122 
DISL,ioos:station:DISL:DISL:1,2013-02-02T19:30:00Z,30.2513,-88.0778,1.9860767,7.02,1111122 
DISL,ioos:station:DISL:DISL:1,2013-02-02T20:00:00Z,30.2513,-88.0778,2.0189953,6.79,1111122 
DISL,ioos:station:DISL:DISL:1,2013-02-02T20:30:00Z,30.2513,-88.0778,2.0394168,6.76,1111122 
DISL,ioos:station:DISL:DISL:1,2013-02-02T21:00:00Z,30.2513,-88.0778,2.0500848,7.0,1111122 
DISL,ioos:station:DISL:DISL:1,2013-02-02T21:30:00Z,30.2513,-88.0778,2.0598383,7.59,1111122 
DISL,ioos:station:DISL:DISL:1,2013-02-02T22:00:00Z,30.2513,-88.0778,2.0625818,8.01,1111122 
DISL,ioos:station:DISL:DISL:1,2013-02-02T22:30:00Z,30.2513,-88.0778,2.0644104,9.38,1111122 
DISL,ioos:station:DISL:DISL:1,2013-02-02T23:00:00Z,30.2513,-88.0778,2.0622768,10.48,1111122 
DISL,ioos:station:DISL:DISL:1,2013-02-02T23:30:00Z,30.2513,-88.0778,2.0586193,10.08,1111122 
DISL,ioos:station:DISL:DISL:1,2013-02-03T00:00:00Z,30.2513,-88.0778,2.0388072,10.58,1111122 
DISL,ioos:station:DISL:DISL:1,2013-02-03T00:30:00Z,30.2513,-88.0778,2.0189953,11.02,1111122 
DISL,ioos:station:DISL:DISL:1,2013-02-03T01:00:00Z,30.2513,-88.0778,1.9970497,11.18,1111122 
DISL,ioos:station:DISL:DISL:1,2013-02-03T01:30:00Z,30.2513,-88.0778,1.984248,10.98,1111122 
DISL,ioos:station:DISL:DISL:1,2013-02-03T02:00:00Z,30.2513,-88.0778,1.9659599,10.8,1111122 
DISL,ioos:station:DISL:DISL:1,2013-02-03T02:30:00Z,30.2513,-88.0778,1.9510249,10.59,1111122 
DISL,ioos:station:DISL:DISL:1,2013-02-03T03:00:00Z,30.2513,-88.0778,1.9306033,10.37,1111122 
DISL,ioos:station:DISL:DISL:1,2013-02-03T03:30:00Z,30.2513,-88.0778,1.8995136,10.19,1111122 
DISL,ioos:station:DISL:DISL:1,2013-02-03T04:00:00Z,30.2513,-88.0778,1.872996,10.16,1111122 
DISL,ioos:station:DISL:DISL:1,2013-02-03T04:30:00Z,30.2513,-88.0778,1.8534888,10.09,1111122 
DISL,ioos:station:DISL:DISL:1,2013-02-03T05:00:00Z,30.2513,-88.0778,1.8263617,10.06,1111122 
DISL,ioos:station:DISL:DISL:1,2013-02-03T05:30:00Z,30.2513,-88.0778,1.8083785,10.01,1111122 
DISL,ioos:station:DISL:DISL:1,2013-02-03T06:00:00Z,30.2513,-88.0778,1.8041112,10.05,1111122 
DISL,ioos:station:DISL:DISL:1,2013-02-03T06:30:00Z,30.2513,-88.0778,1.7669256,9.98,1111122 
DISL,ioos:station:DISL:DISL:1,2013-02-03T07:00:00Z,30.2513,-88.0778,1.751076,10.01,1111122 
DISL,ioos:station:DISL:DISL:1,2013-02-03T07:30:00Z,30.2513,-88.0778,1.7397984,9.97,1111122 
DISL,ioos:station:DISL:DISL:1,2013-02-03T08:00:00Z,30.2513,-88.0778,1.7489424,9.9,1111122 
DISL,ioos:station:DISL:DISL:1,2013-02-03T08:30:00Z,30.2513,-88.0778,1.7498568,9.78,1111122 
DISL,ioos:station:DISL:DISL:1,2013-02-03T09:00:00Z,30.2513,-88.0778,1.7471136,9.95,1111122 
DISL,ioos:station:DISL:DISL:1,2013-02-03T09:30:00Z,30.2513,-88.0778,1.726692,10.01,1111122 
DISL,ioos:station:DISL:DISL:1,2013-02-03T10:00:00Z,30.2513,-88.0778,1.7215103,10.08,1111122 
DISL,ioos:station:DISL:DISL:1,2013-02-03T10:30:00Z,30.2513,-88.0778,1.7404081,10.1,1111122 
DISL,ioos:station:DISL:DISL:1,2013-02-03T11:00:00Z,30.2513,-88.0778,1.7248632,10.09,1111122 
DISL,ioos:station:DISL:DISL:1,2013-02-03T11:30:00Z,30.2513,-88.0778,1.7199864,10.1,1111122 
DISL,ioos:station:DISL:DISL:1,2013-02-03T12:00:00Z,30.2513,-88.0778,1.7178528,10.11,1111122 
DISL,ioos:station:DISL:DISL:1,2013-02-03T12:30:00Z,30.2513,-88.0778,1.726692,10.18,1111122 
DISL,ioos:station:DISL:DISL:1,2013-02-03T13:00:00Z,30.2513,-88.0778,1.7446752,10.18,1111122 
DISL,ioos:station:DISL:DISL:1,2013-02-03T13:30:00Z,30.2513,-88.0778,1.7650968,10.26,1111122 
DISL,ioos:station:DISL:DISL:1,2013-02-03T14:00:00Z,30.2513,-88.0778,1.7833848,10.27,1111122 
DISL,ioos:station:DISL:DISL:1,2013-02-03T14:30:00Z,30.2513,-88.0778,1.7763745,10.26,1111122 
DISL,ioos:station:DISL:DISL:1,2013-02-03T15:00:00Z,30.2513,-88.0778,1.7974056,9.91,1111122 
DISL,ioos:station:DISL:DISL:1,2013-02-03T15:30:00Z,30.2513,-88.0778,1.8071592,9.65,1111122 
DISL,ioos:station:DISL:DISL:1,2013-02-03T16:00:00Z,30.2513,-88.0778,1.8254472,9.69,1111122 
DISL,ioos:station:DISL:DISL:1,2013-02-03T16:30:00Z,30.2513,-88.0778,1.8507457,9.8,1111122 
DISL,ioos:station:DISL:DISL:1,2013-02-03T17:00:00Z,30.2513,-88.0778,1.8748249,9.77,1111122 
DISL,ioos:station:DISL:DISL:1,2013-02-03T17:30:00Z,30.2513,-88.0778,1.7949672,8.71,1111122 
DISL,ioos:station:DISL:DISL:1,2013-02-03T18:00:00Z,30.2513,-88.0778,1.9196304,7.91,1111122 
DISL,ioos:station:DISL:DISL:1,2013-02-03T18:30:00Z,30.2513,-88.0778,1.9318224,8.25,1111122 
DISL,ioos:station:DISL:DISL:1,2013-02-03T19:00:00Z,30.2513,-88.0778,1.9790665,7.61,1111122 
DISL,ioos:station:DISL:DISL:1,2013-02-03T19:30:00Z,30.2513,-88.0778,2.0004025,7.82,1111122 
DISL,ioos:station:DISL:DISL:1,2013-02-03T20:00:00Z,30.2513,-88.0778,2.020824,7.88,1111122 
DISL,ioos:station:DISL:DISL:1,2013-02-03T20:30:00Z,30.2513,-88.0778,2.0275297,8.16,1111122 
DISL,ioos:station:DISL:DISL:1,2013-02-03T21:00:00Z,30.2513,-88.0778,2.0506945,8.61,1111122 
DISL,ioos:station:DISL:DISL:1,2013-02-03T21:30:00Z,30.2513,-88.0778,2.0595336,9.49,1111122 
DISL,ioos:station:DISL:DISL:1,2013-02-03T22:00:00Z,30.2513,-88.0778,2.0574,9.55,1111122 
DISL,ioos:station:DISL:DISL:1,2013-02-03T22:30:00Z,30.2513,-88.0778,2.0729449,10.86,1111122 
DISL,ioos:station:DISL:DISL:1,2013-02-03T23:00:00Z,30.2513,-88.0778,2.089404,11.46,1111122 
DISL,ioos:station:DISL:DISL:1,2013-02-03T23:30:00Z,30.2513,-88.0778,2.0759928,11.36,1111122 
DISL,ioos:station:DISL:DISL:1,2013-02-04T00:00:00Z,30.2513,-88.0778,2.066239,11.6,1111122 
DISL,ioos:station:DISL:DISL:1,2013-02-04T00:30:00Z,30.2513,-88.0778,2.0479512,11.63,1111122 
DISL,ioos:station:DISL:DISL:1,2013-02-04T01:00:00Z,30.2513,-88.0778,2.0363688,11.64,1111122 
DISL,ioos:station:DISL:DISL:1,2013-02-04T01:30:00Z,30.2513,-88.0778,2.0128992,11.52,1111122 
DISL,ioos:station:DISL:DISL:1,2013-02-04T02:00:00Z,30.2513,-88.0778,1.9863816,11.4,1111122 
DISL,ioos:station:DISL:DISL:1,2013-02-04T02:30:00Z,30.2513,-88.0778,1.9543777,11.44,1111122 
DISL,ioos:station:DISL:DISL:1,2013-02-04T03:00:00Z,30.2513,-88.0778,1.9235928,11.33,1111122 
DISL,ioos:station:DISL:DISL:1,2013-02-04T03:30:00Z,30.2513,-88.0778,1.9235928,11.21,1111122 
DISL,ioos:station:DISL:DISL:1,2013-02-04T04:00:00Z,30.2513,-88.0778,1.88976,10.82,1111122 
DISL,ioos:station:DISL:DISL:1,2013-02-04T04:30:00Z,30.2513,-88.0778,1.8568417,10.6,1111122 
DISL,ioos:station:DISL:DISL:1,2013-02-04T05:00:00Z,30.2513,-88.0778,1.8199608,10.08,1111122 
DISL,ioos:station:DISL:DISL:1,2013-02-04T05:30:00Z,30.2513,-88.0778,1.8105121,10.05,1111122 
DISL,ioos:station:DISL:DISL:1,2013-02-04T06:00:00Z,30.2513,-88.0778,1.7742409,10.15,1111122 
DISL,ioos:station:DISL:DISL:1,2013-02-04T06:30:00Z,30.2513,-88.0778,1.7742409,10.22,1111122 
DISL,ioos:station:DISL:DISL:1,2013-02-04T07:00:00Z,30.2513,-88.0778,1.7687544,10.24,1111122 
DISL,ioos:station:DISL:DISL:1,2013-02-04T07:30:00Z,30.2513,-88.0778,1.7465041,10.49,1111122 
DISL,ioos:station:DISL:DISL:1,2013-02-04T08:00:00Z,30.2513,-88.0778,1.732788,10.62,1111122 
DISL,ioos:station:DISL:DISL:1,2013-02-04T08:30:00Z,30.2513,-88.0778,1.716024,10.6,1111122 
DISL,ioos:station:DISL:DISL:1,2013-02-04T09:00:00Z,30.2513,-88.0778,1.7148048,10.44,1111122 
DISL,ioos:station:DISL:DISL:1,2013-02-04T09:30:00Z,30.2513,-88.0778,1.7010888,10.38,1111122 
DISL,ioos:station:DISL:DISL:1,2013-02-04T10:00:00Z,30.2513,-88.0778,1.7010888,10.37,1111122 
DISL,ioos:station:DISL:DISL:1,2013-02-04T10:30:00Z,30.2513,-88.0778,1.6989552,10.35,1111122 
DISL,ioos:station:DISL:DISL:1,2013-02-04T11:00:00Z,30.2513,-88.0778,1.7123665,10.39,1111122 
DISL,ioos:station:DISL:DISL:1,2013-02-04T11:30:00Z,30.2513,-88.0778,1.7105377,10.38,1111122 
DISL,ioos:station:DISL:DISL:1,2013-02-04T12:00:00Z,30.2513,-88.0778,1.7303497,10.43,1111122 
DISL,ioos:station:DISL:DISL:1,2013-02-04T12:30:00Z,30.2513,-88.0778,1.7263873,10.37,1111122 
DISL,ioos:station:DISL:DISL:1,2013-02-04T13:00:00Z,30.2513,-88.0778,1.7577816,10.36,1111122 
DISL,ioos:station:DISL:DISL:1,2013-02-04T13:30:00Z,30.2513,-88.0778,1.7562577,10.08,1111122 
DISL,ioos:station:DISL:DISL:1,2013-02-04T14:00:00Z,30.2513,-88.0778,1.7705833,9.85,1111122 
DISL,ioos:station:DISL:DISL:1,2013-02-04T14:30:00Z,30.2513,-88.0778,1.7931384,9.92,1111122 
DISL,ioos:station:DISL:DISL:1,2013-02-04T15:00:00Z,30.2513,-88.0778,1.8092928,9.93,1111122 
DISL,ioos:station:DISL:DISL:1,2013-02-04T15:30:00Z,30.2513,-88.0778,1.8815304,0.0,1114422 
DISL,ioos:station:DISL:DISL:1,2013-02-04T16:00:00Z,30.2513,-88.0778,1.883969,0.0,1114422 
DISL,ioos:station:DISL:DISL:1,2013-02-04T16:30:00Z,30.2513,-88.0778,1.9104865,0.0,1114422 
DISL,ioos:station:DISL:DISL:1,2013-02-04T17:00:00Z,30.2513,-88.0778,1.876044,0.0,1114422 
DISL,ioos:station:DISL:DISL:1,2013-02-04T17:30:00Z,30.2513,-88.0778,1.9342608,0.0,1114422 
DISL,ioos:station:DISL:DISL:1,2013-02-04T18:00:00Z,30.2513,-88.0778,1.979676,0.0,1114422 
DISL,ioos:station:DISL:DISL:1,2013-02-04T18:30:00Z,30.2513,-88.0778,2.0004025,0.0,1114422 
DISL,ioos:station:DISL:DISL:1,2013-02-04T19:00:00Z,30.2513,-88.0778,2.0260055,0.0,1114422 
DISL,ioos:station:DISL:DISL:1,2013-02-04T19:30:00Z,30.2513,-88.0778,2.0555713,0.0,1114422 
DISL,ioos:station:DISL:DISL:1,2013-02-04T20:00:00Z,30.2513,-88.0778,2.0689824,0.0,1114422 
DISL,ioos:station:DISL:DISL:1,2013-02-04T20:30:00Z,30.2513,-88.0778,2.0964143,0.0,1114422 
DISL,ioos:station:DISL:DISL:1,2013-02-04T21:00:00Z,30.2513,-88.0778,2.1128738,0.0,1114422 
DISL,ioos:station:DISL:DISL:1,2013-02-04T21:30:00Z,30.2513,-88.0778,2.142744,8.17,1111122 
DISL,ioos:station:DISL:DISL:1,2013-02-04T22:00:00Z,30.2513,-88.0778,2.1488402,8.61,1111122 
DISL,ioos:station:DISL:DISL:1,2013-02-04T22:30:00Z,30.2513,-88.0778,2.188464,10.22,1111122 
DISL,ioos:station:DISL:DISL:1,2013-02-04T23:00:00Z,30.2513,-88.0778,2.188464,10.33,1111122 
DISL,ioos:station:DISL:DISL:1,2013-02-04T23:30:00Z,30.2513,-88.0778,2.173224,10.05,1111122 
DISL,ioos:station:DISL:DISL:1,2013-02-05T00:00:00Z,30.2513,-88.0778,2.167128,10.54,1111122 
DISL,ioos:station:DISL:DISL:1,2013-02-05T00:30:00Z,30.2513,-88.0778,2.197608,10.85,1111122 
DISL,ioos:station:DISL:DISL:1,2013-02-05T01:00:00Z,30.2513,-88.0778,2.16408,10.86,1111122 
DISL,ioos:station:DISL:DISL:1,2013-02-05T01:30:00Z,30.2513,-88.0778,2.154936,10.92,1111122 
DISL,ioos:station:DISL:DISL:1,2013-02-05T02:00:00Z,30.2513,-88.0778,2.1238463,10.68,1111122 
DISL,ioos:station:DISL:DISL:1,2013-02-05T02:30:00Z,30.2513,-88.0778,2.1037297,10.86,1111122 
DISL,ioos:station:DISL:DISL:1,2013-02-05T03:00:00Z,30.2513,-88.0778,2.0750785,10.6,1111122 
DISL,ioos:station:DISL:DISL:1,2013-02-05T03:30:00Z,30.2513,-88.0778,2.0644104,10.69,1111122 
DISL,ioos:station:DISL:DISL:1,2013-02-05T04:00:00Z,30.2513,-88.0778,2.0308824,10.73,1111122 
DISL,ioos:station:DISL:DISL:1,2013-02-05T04:30:00Z,30.2513,-88.0778,1.9961351,10.69,1111122 
DISL,ioos:station:DISL:DISL:1,2013-02-05T05:00:00Z,30.2513,-88.0778,1.9988785,10.63,1111122 
DISL,ioos:station:DISL:DISL:1,2013-02-05T05:30:00Z,30.2513,-88.0778,1.9525489,10.67,1111122 
DISL,ioos:station:DISL:DISL:1,2013-02-05T06:00:00Z,30.2513,-88.0778,1.9196304,10.68,1111122 
DISL,ioos:station:DISL:DISL:1,2013-02-05T06:30:00Z,30.2513,-88.0778,1.9107913,10.63,1111122 
DISL,ioos:station:DISL:DISL:1,2013-02-05T07:00:00Z,30.2513,-88.0778,1.8879311,10.55,1111122 
DISL,ioos:station:DISL:DISL:1,2013-02-05T07:30:00Z,30.2513,-88.0778,1.8757392,10.52,1111122 
DISL,ioos:station:DISL:DISL:1,2013-02-05T08:00:00Z,30.2513,-88.0778,1.830324,10.47,1111122 
DISL,ioos:station:DISL:DISL:1,2013-02-05T08:30:00Z,30.2513,-88.0778,1.8166081,10.45,1111122 
DISL,ioos:station:DISL:DISL:1,2013-02-05T09:00:00Z,30.2513,-88.0778,1.8025873,10.44,1111122 
DISL,ioos:station:DISL:DISL:1,2013-02-05T09:30:00Z,30.2513,-88.0778,1.8025873,10.44,1111122 
DISL,ioos:station:DISL:DISL:1,2013-02-05T10:00:00Z,30.2513,-88.0778,1.8019776,10.44,1111122 
DISL,ioos:station:DISL:DISL:1,2013-02-05T10:30:00Z,30.2513,-88.0778,1.8257519,10.44,1111122 
DISL,ioos:station:DISL:DISL:1,2013-02-05T11:00:00Z,30.2513,-88.0778,1.8288,10.42,1111122 
DISL,ioos:station:DISL:DISL:1,2013-02-05T11:30:00Z,30.2513,-88.0778,1.8065497,10.38,1111122 
DISL,ioos:station:DISL:DISL:1,2013-02-05T12:00:00Z,30.2513,-88.0778,1.7961864,10.31,1111122 
DISL,ioos:station:DISL:DISL:1,2013-02-05T12:30:00Z,30.2513,-88.0778,1.8400776,10.3,1111122 
DISL,ioos:station:DISL:DISL:1,2013-02-05T13:00:00Z,30.2513,-88.0778,1.8403825,10.27,1111122 
DISL,ioos:station:DISL:DISL:1,2013-02-05T13:30:00Z,30.2513,-88.0778,1.8245329,10.27,1111122 
DISL,ioos:station:DISL:DISL:1,2013-02-05T14:00:00Z,30.2513,-88.0778,1.8422112,10.2,1111122 
DISL,ioos:station:DISL:DISL:1,2013-02-05T14:30:00Z,30.2513,-88.0778,1.868424,10.13,1111122 
DISL,ioos:station:DISL:DISL:1,2013-02-05T15:00:00Z,30.2513,-88.0778,1.8888457,10.12,1111122 
DISL,ioos:station:DISL:DISL:1,2013-02-05T15:30:00Z,30.2513,-88.0778,1.8934176,10.1,1111122 
DISL,ioos:station:DISL:DISL:1,2013-02-05T16:00:00Z,30.2513,-88.0778,1.9147537,9.89,1111122 
DISL,ioos:station:DISL:DISL:1,2013-02-05T16:30:00Z,30.2513,-88.0778,1.9165825,9.84,1111122 
DISL,ioos:station:DISL:DISL:1,2013-02-05T17:00:00Z,30.2513,-88.0778,1.9741896,9.79,1111122 
DISL,ioos:station:DISL:DISL:1,2013-02-05T17:30:00Z,30.2513,-88.0778,1.979676,9.67,1111122 
DISL,ioos:station:DISL:DISL:1,2013-02-05T18:00:00Z,30.2513,-88.0778,2.0007071,8.92,1111122 
DISL,ioos:station:DISL:DISL:1,2013-02-05T18:30:00Z,30.2513,-88.0778,2.0339303,8.51,1111122 
DISL,ioos:station:DISL:DISL:1,2013-02-05T19:00:00Z,30.2513,-88.0778,2.0372832,8.43,1111122 
DISL,ioos:station:DISL:DISL:1,2013-02-05T19:30:00Z,30.2513,-88.0778,2.083613,8.32,1111122 
DISL,ioos:station:DISL:DISL:1,2013-02-05T20:00:00Z,30.2513,-88.0778,2.176272,8.23,1111122 
DISL,ioos:station:DISL:DISL:1,2013-02-05T20:30:00Z,30.2513,-88.0778,2.157984,8.2,1111122 
DISL,ioos:station:DISL:DISL:1,2013-02-05T21:00:00Z,30.2513,-88.0778,2.151888,8.15,1111122 
DISL,ioos:station:DISL:DISL:1,2013-02-05T21:30:00Z,30.2513,-88.0778,2.2098,8.14,1111122 
DISL,ioos:station:DISL:DISL:1,2013-02-05T22:00:00Z,30.2513,-88.0778,2.246376,8.16,1111122 
DISL,ioos:station:DISL:DISL:1,2013-02-05T22:30:00Z,30.2513,-88.0778,2.0890992,8.17,1111122 
DISL,ioos:station:DISL:DISL:1,2013-02-05T23:00:00Z,30.2513,-88.0778,2.295144,8.43,1111122 
DISL,ioos:station:DISL:DISL:1,2013-02-05T23:30:00Z,30.2513,-88.0778,2.31648,8.72,1111122 
DISL,ioos:station:DISL:DISL:1,2013-02-06T00:00:00Z,30.2513,-88.0778,2.313432,9.09,1111122 
DISL,ioos:station:DISL:DISL:1,2013-02-06T00:30:00Z,30.2513,-88.0778,2.304288,9.13,1111122 
DISL,ioos:station:DISL:DISL:1,2013-02-06T01:00:00Z,30.2513,-88.0778,2.304288,9.4,1111122 
DISL,ioos:station:DISL:DISL:1,2013-02-06T01:30:00Z,30.2513,-88.0778,2.276856,9.55,1111122 
DISL,ioos:station:DISL:DISL:1,2013-02-06T02:00:00Z,30.2513,-88.0778,2.267712,10.39,1111122 
DISL,ioos:station:DISL:DISL:1,2013-02-06T02:30:00Z,30.2513,-88.0778,2.307336,10.38,1111122 
DISL,ioos:station:DISL:DISL:1,2013-02-06T03:00:00Z,30.2513,-88.0778,2.237232,10.32,1111122 
DISL,ioos:station:DISL:DISL:1,2013-02-06T03:30:00Z,30.2513,-88.0778,2.203704,10.26,1111122 
DISL,ioos:station:DISL:DISL:1,2013-02-06T04:00:00Z,30.2513,-88.0778,2.170176,9.87,1111122 
DISL,ioos:station:DISL:DISL:1,2013-02-06T04:30:00Z,30.2513,-88.0778,2.124456,10.09,1111122 
DISL,ioos:station:DISL:DISL:1,2013-02-06T05:00:00Z,30.2513,-88.0778,2.1073873,9.89,1111122 
DISL,ioos:station:DISL:DISL:1,2013-02-06T05:30:00Z,30.2513,-88.0778,2.0494752,10.25,1111122 
DISL,ioos:station:DISL:DISL:1,2013-02-06T06:00:00Z,30.2513,-88.0778,2.0372832,10.42,1111122 
DISL,ioos:station:DISL:DISL:1,2013-02-06T06:30:00Z,30.2513,-88.0778,2.01168,10.42,1111122 
DISL,ioos:station:DISL:DISL:1,2013-02-06T07:00:00Z,30.2513,-88.0778,1.985772,10.47,1111122 
DISL,ioos:station:DISL:DISL:1,2013-02-06T07:30:00Z,30.2513,-88.0778,1.9763232,10.4,1111122 
DISL,ioos:station:DISL:DISL:1,2013-02-06T08:00:00Z,30.2513,-88.0778,1.9443192,10.32,1111122 
DISL,ioos:station:DISL:DISL:1,2013-02-06T08:30:00Z,30.2513,-88.0778,1.9299935,10.25,1111122 
DISL,ioos:station:DISL:DISL:1,2013-02-06T09:00:00Z,30.2513,-88.0778,1.9077432,10.25,1111122 